This is the latest recevied weather packets stored in our database for station/object Krupka. If no packets are shown the sender has not sent any weather packets the latest 1 day(s).
| Time | Temp. | Humidity | Pressure | Rain* | Wind** | Luminosity | Snow |
|---|---|---|---|---|---|---|---|
| 1778028003 | 8.89° C | 87% | - | - | 3.13 m/s, 265° | - | - |
| 1778027703 | 8.89° C | 87% | - | - | 1.79 m/s, 271° | - | - |
| 1778027404 | 7.78° C | 87% | - | - | 3.13 m/s, 271° | - | - |
| 1778027102 | 8.89° C | 87% | - | - | 3.13 m/s, 275° | - | - |
| 1778026804 | 8.89° C | 87% | - | - | 3.13 m/s, 276° | - | - |
| 1778026503 | 8.89° C | 87% | - | - | 1.79 m/s, 279° | - | - |
| 1778026204 | 8.89° C | 87% | - | - | 3.13 m/s, 268° | - | - |
| 1778025904 | 8.89° C | 87% | - | - | 3.13 m/s, 283° | - | - |
| 1778025604 | 8.89° C | 86% | - | - | 1.79 m/s, 267° | - | - |
| 1778025303 | 8.89° C | 86% | - | - | 3.13 m/s, 279° | - | - |
| 1778025003 | 8.89° C | 86% | - | - | 3.13 m/s, 277° | - | - |
| 1778024703 | 8.89° C | 86% | - | - | 3.13 m/s, 278° | - | - |
| 1778024404 | 8.89° C | 85% | - | - | 3.13 m/s, 271° | - | - |
| 1778024103 | 8.89° C | 85% | - | - | 0.89 m/s, 291° | - | - |
| 1778023804 | 8.89° C | 85% | - | - | 0 m/s | - | - |
| 1778023502 | 8.89° C | 85% | - | - | 0.89 m/s, 316° | - | - |
| 1778023205 | 8.89° C | 85% | - | - | 0.89 m/s, 307° | - | - |
| 1778022903 | 8.89° C | 85% | - | - | 1.79 m/s, 343° | - | - |
| 1778022604 | 8.89° C | 85% | - | - | 3.13 m/s, 337° | - | - |
| 1778022304 | 8.89° C | 85% | - | - | 4.02 m/s, 342° | - | - |
| 1778022003 | 8.89° C | 85% | - | - | 4.02 m/s, 340° | - | - |
| 1778021702 | 10° C | 85% | - | - | 4.02 m/s, 345° | - | - |
| 1778021403 | 10° C | 85% | - | - | 3.13 m/s, 324° | - | - |
| 1778021103 | 8.89° C | 85% | - | - | 1.79 m/s, 333° | - | - |
| 1778020811 | 10° C | 86% | - | - | 4.02 m/s, 338° | - | - |
* Rain since midnight (hover to see other rain measurements)
** Current wind speed in m/s (hover to see current wind gust speed)